Location: Unspecified
(0.0000°N, 0.0000°E)
Time: 03:46:34
(UTC+00:00)

A-11 Canister half - Pass Details

Date: 17 February 2023
Orbit: 1526 x 1682 km, 47.3° (Epoch: 25 March)

Event Time Altitude Azimuth Distance (km) Brightness Sun altitude
Rises 10:18:17 0° 327° (NNW) 4,715 11.3 58.9°
Reaches altitude 10° 10:21:21 10° 331° (NNW) 3,751 10.9 59.6°
Maximum altitude 10:30:47 64° 51° (NE) 1,742 10.7 61.7°
Drops below altitude 10° 10:40:32 10° 130° (SE) 3,883 11.7 63.9°
Sets 10:43:46 0° 133° (SE) 4,889 12.0 64.6°
